TimeEDT,TemperatureF,Dew PointF,Humidity,Sea Level PressureIn,VisibilityMPH,Wind Direction,Wind SpeedMPH,Gust SpeedMPH,PrecipitationIn,Events,Conditions,WindDirDegrees,DateUTC
12:15 AM,48.2,23.0,37,30.06,10.0,WNW,13.8,-,N/A,,Clear,290,2013-03-26 04:15:00
12:35 AM,48.2,23.0,37,30.07,10.0,WNW,9.2,-,N/A,,Clear,290,2013-03-26 04:35:00
12:55 AM,46.4,24.8,43,30.07,10.0,West,8.1,-,N/A,,Clear,280,2013-03-26 04:55:00
1:15 AM,46.4,24.8,43,30.08,10.0,West,6.9,-,N/A,,Clear,280,2013-03-26 05:15:00
1:35 AM,44.6,24.8,46,30.08,10.0,West,5.8,-,N/A,,Clear,270,2013-03-26 05:35:00
1:55 AM,44.6,26.6,49,30.08,10.0,West,6.9,-,N/A,,Clear,280,2013-03-26 05:55:00
2:15 AM,44.6,24.8,46,30.08,10.0,WNW,6.9,-,N/A,,Clear,290,2013-03-26 06:15:00
2:35 AM,44.6,24.8,46,30.08,10.0,WNW,6.9,-,N/A,,Clear,300,2013-03-26 06:35:00
2:55 AM,44.6,24.8,46,30.08,10.0,WNW,8.1,-,N/A,,Clear,300,2013-03-26 06:55:00
3:15 AM,42.8,26.6,53,30.08,10.0,WNW,6.9,-,N/A,,Clear,300,2013-03-26 07:15:00
3:35 AM,42.8,26.6,53,30.08,10.0,WNW,8.1,-,N/A,,Clear,300,2013-03-26 07:35:00
3:55 AM,41.0,26.6,57,30.08,10.0,WNW,6.9,-,N/A,,Clear,300,2013-03-26 07:55:00
4:15 AM,42.8,26.6,53,30.09,10.0,NW,9.2,-,N/A,,Clear,310,2013-03-26 08:15:00
4:35 AM,42.8,26.6,53,30.09,10.0,NW,9.2,-,N/A,,Clear,320,2013-03-26 08:35:00
4:55 AM,41.0,26.6,57,30.09,10.0,NW,10.4,-,N/A,,Clear,320,2013-03-26 08:55:00
5:15 AM,41.0,24.8,53,30.10,10.0,NW,15.0,20.7,N/A,,Clear,320,2013-03-26 09:15:00
5:35 AM,41.0,24.8,53,30.10,10.0,NW,12.7,-,N/A,,Clear,320,2013-03-26 09:35:00
5:55 AM,41.0,24.8,53,30.11,10.0,NW,8.1,-,N/A,,Clear,310,2013-03-26 09:55:00
6:15 AM,39.2,24.8,56,30.12,10.0,NW,6.9,-,N/A,,Clear,310,2013-03-26 10:15:00
6:35 AM,39.2,24.8,56,30.13,10.0,NW,9.2,-,N/A,,Clear,310,2013-03-26 10:35:00
6:50 AM,39.2,23.0,52,30.13,10.0,NW,8.1,-,N/A,,Clear,310,2013-03-26 10:50:00
7:50 AM,37.4,24.8,60,30.15,10.0,WNW,5.8,-,N/A,,Clear,290,2013-03-26 11:50:00
8:50 AM,41.0,24.8,53,30.17,10.0,West,13.8,-,N/A,,Clear,280,2013-03-26 12:50:00
9:50 AM,44.6,24.8,46,30.17,10.0,West,15.0,-,N/A,,Clear,280,2013-03-26 13:50:00
11:50 AM,48.2,24.8,40,30.17,10.0,WSW,15.0,-,N/A,,Clear,250,2013-03-26 15:50:00
12:50 PM,50.0,24.8,37,30.16,10.0,West,15.0,-,N/A,,Clear,260,2013-03-26 16:50:00
1:50 PM,53.6,26.6,35,30.15,10.0,West,12.7,21.9,N/A,,Clear,270,2013-03-26 17:50:00
2:50 PM,53.6,24.8,33,30.14,10.0,WNW,12.7,25.3,N/A,,Clear,300,2013-03-26 18:50:00
5:50 PM,53.6,24.8,33,30.14,10.0,WNW,18.4,24.2,N/A,,Partly Cloudy,300,2013-03-26 21:50:00
7:50 PM,48.2,26.6,43,30.18,10.0,NNW,9.2,-,N/A,,Clear,330,2013-03-26 23:50:00
8:15 PM,48.2,28.4,46,30.19,10.0,WNW,5.8,-,N/A,,Clear,300,2013-03-27 00:15:00
8:35 PM,46.4,28.4,50,30.21,10.0,WNW,5.8,-,N/A,,Clear,300,2013-03-27 00:35:00
8:55 PM,46.4,28.4,50,30.22,10.0,WNW,5.8,-,N/A,,Clear,300,2013-03-27 00:55:00
9:15 PM,44.6,32.0,61,30.23,10.0,NNW,3.5,-,N/A,,Clear,340,2013-03-27 01:15:00
9:35 PM,39.2,32.0,75,30.23,10.0,Calm,Calm,-,N/A,,Clear,0,2013-03-27 01:35:00
9:55 PM,37.4,32.0,81,30.24,10.0,Calm,Calm,-,N/A,,Clear,0,2013-03-27 01:55:00
10:15 PM,37.4,32.0,81,30.25,10.0,Calm,Calm,-,N/A,,Clear,0,2013-03-27 02:15:00
10:35 PM,35.6,32.0,87,30.26,10.0,Calm,Calm,-,N/A,,Clear,0,2013-03-27 02:35:00
10:55 PM,35.6,32.0,87,30.26,10.0,Calm,Calm,-,N/A,,Clear,0,2013-03-27 02:55:00
11:15 PM,35.6,32.0,87,30.27,10.0,Calm,Calm,-,N/A,,Clear,0,2013-03-27 03:15:00
11:35 PM,33.8,32.0,93,30.27,10.0,Calm,Calm,-,N/A,,Clear,0,2013-03-27 03:35:00
11:55 PM,32.0,32.0,100,30.27,10.0,Calm,Calm,-,N/A,,Clear,0,2013-03-27 03:55:00